FW0633 Weather Reports


Display with metric or nautical units.
time (UTC)temp
F
wind
direction
speed
MPH
gust
MPH
rain 1hr
in
rain 24hr
in
rain mn
in
humidity
%
barometer
mb
20260508203006 87 268 4.0 9.0 0.00 0.00 0.00 14 1034.7
20260508201505 86 253 2.0 7.0 0.00 0.00 0.00 14 1034.8
20260508200005 84 30 3.0 7.0 0.00 0.00 0.00 15 1034.9
20260508194526 86 257 2.0 7.0 0.00 0.00 0.00 14 1034.9
20260508193026 85 287 3.0 8.0 0.00 0.00 0.00 15 1035.2
20260508191505 86 261 3.0 9.0 0.00 0.00 0.00 15 1035.2
20260508190026 85 28 2.0 6.0 0.00 0.00 0.00 14 1035.4
20260508184526 84 347 4.0 10.0 0.00 0.00 0.00 14 1035.6
20260508183027 85 20 1.0 7.0 0.00 0.00 0.00 14 1035.6
20260508181505 84 299 1.0 4.0 0.00 0.00 0.00 14 1035.8
20260508180026 83 315 2.0 6.0 0.00 0.00 0.00 14 1036.0
20260508174504 83 335 3.0 10.0 0.00 0.00 0.00 15 1036.2
20260508173005 82 28 2.0 7.0 0.00 0.00 0.00 17 1036.3
20260508171504 81 12 2.0 6.0 0.00 0.00 0.00 16 1036.3
20260508170004 80 16 3.0 6.0 0.00 0.00 0.00 16 1036.4
20260508164504 79 58 2.0 6.0 0.00 0.00 0.00 18 1036.4
20260508163004 78 76 2.0 4.0 0.00 0.00 0.00 18 1036.5
20260508161526 77 52 2.0 5.0 0.00 0.00 0.00 17 1036.6
20260508160006 76 62 1.0 3.0 0.00 0.00 0.00 18 1036.5
20260508154505 75 23 1.0 3.0 0.00 0.00 0.00 19 1036.5
20260508153005 74 100 1.0 3.0 0.00 0.00 0.00 18 1036.5
20260508151504 74 65 1.0 2.0 0.00 0.00 0.00 18 1036.6
20260508150005 72 83 1.0 2.0 0.00 0.00 0.00 26 1036.5
20260508144505 70 354 0.0 1.0 0.00 0.00 0.00 28 1036.5
20260508143025 65 259 0.0 1.0 0.00 0.00 0.00 31 1036.5
20260508141505 62 268 0.0 1.0 0.00 0.00 0.00 32 1036.4
20260508140004 59 278 0.0 1.0 0.00 0.00 0.00 32 1036.4
20260508134504 57 273 0.0 1.0 0.00 0.00 0.00 33 1036.3
20260508133004 54 272 0.0 2.0 0.00 0.00 0.00 34 1036.1
20260508131504 53 271 1.0 3.0 0.00 0.00 0.00 34 1036.0
20260508130004 51 279 0.0 1.0 0.00 0.00 0.00 35 1035.8
20260508124504 50 253 0.0 2.0 0.00 0.00 0.00 36 1035.7
20260508123004 49 281 0.0 1.0 0.00 0.00 0.00 36 1035.8
20260508121504 48 285 0.0 1.0 0.00 0.00 0.00 38 1035.7
20260508120004 48 285 0.0 1.0 0.00 0.00 0.00 39 1035.6
20260508114504 49 285 0.0 1.0 0.00 0.00 0.00 38 1035.6
20260508113005 50 285 0.0 1.0 0.00 0.00 0.00 37 1035.5
20260508111504 51 215 0.0 1.0 0.00 0.00 0.00 35 1035.5
20260508110004 53 261 0.0 1.0 0.00 0.00 0.00 32 1035.4
20260508104504 53 277 0.0 2.0 0.00 0.00 0.00 32 1035.0
20260508103004 52 278 0.0 1.0 0.00 0.00 0.00 34 1035.2
20260508101504 52 258 0.0 1.0 0.00 0.00 0.00 33 1035.2
20260508100004 52 271 0.0 1.0 0.00 0.00 0.00 34 1035.2
20260508094504 52 276 0.0 1.0 0.00 0.00 0.00 34 1035.1
20260508093004 53 276 0.0 1.0 0.00 0.00 0.00 33 1035.2
20260508091503 54 278 0.0 2.0 0.00 0.00 0.00 31 1035.2
20260508090004 55 274 0.0 2.0 0.00 0.00 0.00 30 1035.2
20260508084504 56 275 0.0 2.0 0.00 0.00 0.00 29 1035.2
20260508083004 56 287 0.0 1.0 0.00 0.00 0.00 30 1035.4
20260508081504 57 287 0.0 1.0 0.00 0.00 0.00 29 1035.5
20260508080004 58 266 0.0 1.0 0.00 0.00 0.00 28 1035.6
20260508074503 59 218 0.0 1.0 0.00 0.00 0.00 27 1035.6
20260508073004 60 221 0.0 3.0 0.00 0.00 0.00 25 1035.7
20260508071503 61 221 0.0 2.0 0.00 0.00 0.00 25 1035.7
20260508070004 62 215 1.0 5.0 0.00 0.00 0.00 23 1035.7
20260508064504 63 229 1.0 5.0 0.00 0.00 0.00 22 1035.6
20260508063004 62 308 0.0 1.0 0.00 0.00 0.00 24 1035.6
20260508061503 63 350 1.0 4.0 0.00 0.00 0.00 22 1035.5
20260508060004 63 220 0.0 4.0 0.00 0.00 0.00 22 1035.4
20260508054504 64 227 1.0 3.0 0.00 0.00 0.00 22 1035.3
20260508053004 64 223 1.0 3.0 0.00 0.00 0.00 23 1035.5
20260508051524 64 218 1.0 4.0 0.00 0.00 0.00 23 1035.6
20260508050003 65 221 1.0 3.0 0.00 0.00 0.00 23 1035.5
20260508044524 65 226 1.0 3.0 0.00 0.00 0.00 23 1035.4
20260508043003 66 229 1.0 4.0 0.00 0.00 0.00 23 1035.4
20260508041505 66 240 1.0 3.0 0.00 0.00 0.00 23 1035.2
20260508040006 67 231 2.0 6.0 0.00 0.00 0.00 22 1035.0
20260508034506 68 241 1.0 4.0 0.00 0.00 0.00 22 1034.8
20260508033006 68 245 1.0 5.0 0.00 0.00 0.00 22 1034.5
20260508031506 68 249 1.0 4.0 0.00 0.00 0.00 22 1034.4
20260508030005 69 250 1.0 6.0 0.00 0.00 0.00 21 1034.2
20260508024505 70 255 1.0 4.0 0.00 0.00 0.00 20 1033.9
20260508023026 71 258 2.0 6.0 0.00 0.00 0.00 20 1033.8
20260508021505 73 263 2.0 5.0 0.00 0.00 0.00 19 1033.6
20260508020005 75 247 1.0 4.0 0.00 0.00 0.00 18 1033.4
20260508014527 76 277 1.0 4.0 0.00 0.00 0.00 17 1033.2
20260508013006 78 274 1.0 5.0 0.00 0.00 0.00 16 1033.2
20260508011505 80 309 1.0 3.0 0.00 0.00 0.00 12 1033.2
20260508010005 80 348 2.0 3.0 0.00 0.00 0.00 10 1033.1
20260508004506 82 302 1.0 6.0 0.00 0.00 0.00 10 1033.0
20260508003006 83 274 0.0 3.0 0.00 0.00 0.00 10 1033.1
20260508001506 80 21 1.0 4.0 0.00 0.00 0.00 11 1033.2
20260508000005 82 288 1.0 4.0 0.00 0.00 0.00 10 1033.4
20260507234505 82 262 1.0 4.0 0.00 0.00 0.00 10 1033.4
20260507233005 81 301 2.0 7.0 0.00 0.00 0.00 10 1033.5
20260507231505 82 348 1.0 6.0 0.00 0.00 0.00 11 1033.6
20260507230005 81 285 1.0 4.0 0.00 0.00 0.00 11 1033.6
20260507224505 79 13 2.0 6.0 0.00 0.00 0.00 13 1033.8
20260507223006 79 88 3.0 6.0 0.00 0.00 0.00 11 1034.0
20260507221526 79 56 3.0 9.0 0.00 0.00 0.00 10 1034.1
20260507220005 80 6 3.0 7.0 0.00 0.00 0.00 9 1034.4
20260507214526 81 257 3.0 7.0 0.00 0.00 0.00 11 1034.4
20260507213005 81 284 2.0 6.0 0.00 0.00 0.00 11 1034.8
20260507211505 81 321 2.0 7.0 0.00 0.00 0.00 11 1034.9
20260507210005 79 92 1.0 3.0 0.00 0.00 0.00 11 1035.2
20260507204505 78 93 3.0 7.0 0.00 0.00 0.00 13 1035.4